Wind_Speed
98 98 98 98 98 97 93 91 89 85 82 79 78 80 81 82 82 81 78 74 68 58 55 57 56 59 63 65 67 67 67 67 65 63 59 56 52 47 44 43 41 41 39 36 35 34 33 31 29 31 34 35 35 34 33 32 32 29 27 29 30 31
97 97 97 97 96 93 89 87 84 80 79 78 77 78 79 80 79 78 75 71 65 60 59 57 53 56 60 63 68 69 68 66 64 60 57 54 51 47 44 42 41 40 38 35 34 33 33 31 29 30 33 35 34 33 33 32 32 30 27 29 32 32
95 94 94 94 92 90 87 86 84 82 81 81 80 79 78 78 77 75 73 69 65 62 57 52 52 58 63 65 67 67 65 63 61 58 56 53 50 47 44 41 40 38 35 34 33 34 34 32 31 31 33 33 33 33 34 33 31 30 28 30 32 32
90 90 90 90 89 87 85 84 83 82 81 80 79 78 77 76 75 72 68 65 64 59 54 57 63 67 67 67 66 65 63 60 57 56 55 52 49 46 43 40 38 36 33 33 33 34 35 33 32 32 32 32 31 33 35 34 31 30 29 29 31 33
85 85 86 86 85 83 82 81 81 79 78 77 77 76 75 73 72 69 66 63 63 62 61 65 68 67 67 66 65 62 58 56 55 54 54 51 47 44 42 39 37 36 34 34 34 35 35 33 32 32 33 32 31 33 35 34 31 29 29 29 29 32
81 81 82 82 81 80 79 79 78 77 77 76 75 74 73 72 70 68 67 65 64 65 66 68 68 67 66 65 62 59 57 56 55 54 52 48 43 41 40 38 37 36 34 35 36 36 35 33 33 33 33 32 31 34 35 33 31 29 28 29 28 31
79 79 79 78 78 78 78 77 77 77 76 75 75 74 72 70 69 68 68 67 66 67 68 70 70 68 66 64 62 59 57 56 54 51 47 42 37 36 37 37 36 36 35 36 37 37 36 33 34 35 34 32 31 34 35 33 31 29 28 28 29 29
78 78 77 77 77 77 77 77 77 77 76 76 74 72 70 69 69 68 68 68 68 70 70 70 70 67 65 63 60 57 55 53 51 47 42 38 33 33 34 36 37 37 36 37 37 37 35 34 36 38 37 34 34 35 35 32 31 28 27 28 29 28
77 77 77 77 77 78 78 78 78 77 77 77 75 73 71 72 71 71 70 69 68 68 67 67 67 65 62 58 56 54 52 50 47 41 38 36 32 32 34 36 39 40 38 38 38 36 34 34 36 39 39 36 34 36 34 32 31 28 26 27 29 28
78 78 78 78 78 79 79 79 78 78 78 77 77 75 74 74 74 73 71 68 65 60 61 65 64 61 58 55 53 51 47 45 41 36 35 34 30 31 33 36 39 40 39 38 38 36 34 35 37 39 40 38 35 36 34 31 30 27 26 27 29 29
80 80 80 79 79 80 80 80 79 79 78 78 77 76 75 74 73 72 70 67 63 58 61 64 61 57 53 49 49 46 40 39 37 33 32 32 31 31 31 33 37 39 39 39 38 36 34 36 37 39 40 39 37 37 34 31 29 26 27 29 29 30
81 81 80 80 80 80 80 80 79 78 78 77 76 74 73 72 70 69 67 64 62 59 60 59 55 52 48 44 44 40 36 34 33 31 30 30 32 32 31 31 34 37 39 40 38 36 35 37 38 38 39 39 37 37 35 32 30 30 30 30 30 31
81 81 80 80 79 79 79 79 78 77 76 75 73 71 70 68 66 65 62 60 58 57 55 53 50 47 43 41 39 35 34 32 32 32 30 29 31 31 31 31 31 34 36 38 38 37 37 38 39 38 38 38 37 36 35 33 31 31 30 30 30 31
79 79 79 79 78 77 76 75 74 73 71 70 68 66 64 63 61 59 57 55 54 52 50 48 45 41 38 36 33 31 31 31 32 33 29 29 31 30 29 27 29 32 34 37 38 38 38 39 40 39 37 36 35 34 33 33 31 30 29 28 28 29
78 77 77 76 74 73 71 70 68 66 65 64 62 60 58 57 55 53 52 50 49 47 46 44 40 36 33 31 29 28 29 31 31 31 30 31 30 27 26 25 26 29 32 35 37 39 40 40 40 41 39 36 34 33 33 34 33 31 30 27 25 26
75 74 73 71 68 66 64 62 61 59 58 57 55 53 52 51 50 48 47 46 45 43 41 39 36 32 29 28 26 26 29 30 30 32 33 32 30 28 27 27 29 30 30 32 35 37 38 37 38 40 40 38 36 34 34 35 35 34 32 29 27 26
69 68 66 64 61 59 56 55 53 52 51 50 49 48 47 46 45 44 42 41 40 38 36 34 32 29 27 26 25 27 29 29 30 33 33 32 31 31 30 28 30 31 30 30 32 34 35 35 34 36 38 37 37 36 35 36 36 37 36 33 30 28
61 59 58 56 53 51 49 47 46 45 45 44 44 43 42 41 40 39 38 37 35 33 32 31 29 27 26 25 26 28 28 28 29 32 33 31 33 33 29 27 27 28 29 29 29 31 34 34 32 33 35 34 34 35 37 37 38 40 40 37 33 30
52 51 49 48 45 43 42 41 40 40 40 40 39 39 38 37 36 35 33 32 30 30 29 28 27 26 26 26 28 29 28 27 28 32 32 29 32 33 28 28 27 24 27 29 28 28 30 32 32 31 32 32 32 33 35 37 37 38 40 39 35 32
43 42 42 40 39 37 36 36 36 37 36 36 35 35 34 34 33 31 30 28 27 27 27 27 26 27 27 27 28 30 30 31 31 34 33 30 32 33 32 33 30 25 27 29 29 28 27 28 31 30 29 30 31 32 33 34 34 36 39 40 37 35
35 36 36 35 34 33 33 33 33 33 33 33 32 32 31 31 30 28 27 26 26 26 26 26 26 27 28 28 29 30 32 33 33 33 34 33 32 34 36 38 34 28 28 31 31 30 28 28 30 31 30 30 32 32 32 33 35 36 38 40 39 37
30 31 32 32 31 31 30 30 30 30 30 30 30 30 29 29 28 27 26 25 24 24 24 25 26 27 28 29 30 31 32 33 33 33 34 35 34 35 38 39 36 31 29 33 34 32 31 30 31 32 32 33 33 33 34 35 36 37 37 39 41 38
27 28 28 29 29 29 28 28 28 28 28 28 28 28 28 28 27 26 25 24 23 23 23 24 25 26 28 29 31 32 33 34 34 34 34 35 36 36 38 38 36 32 30 33 35 34 34 34 33 34 34 34 35 35 36 37 37 38 37 38 40 39
25 26 26 26 26 26 27 27 27 26 25 25 26 26 27 26 26 25 23 22 22 22 23 23 25 26 28 30 31 32 34 35 35 35 34 35 38 39 39 40 38 35 33 34 35 35 36 37 37 36 36 36 37 37 38 39 38 38 38 37 38 40
25 25 25 25 24 24 25 25 25 24 23 23 23 24 24 24 24 23 22 22 22 23 23 24 25 27 28 30 32 33 34 35 36 36 35 35 39 42 42 42 41 39 36 37 37 36 37 40 40 39 39 39 40 39 39 40 39 38 39 37 37 40
24 24 24 23 23 23 24 24 23 23 23 22 22 23 23 23 23 23 23 23 23 24 25 26 27 28 29 31 33 34 35 35 36 36 35 35 38 43 45 45 45 43 40 40 41 39 39 41 41 41 42 44 44 42 41 41 39 38 39 39 38 39
25 23 24 23 23 24 24 23 23 23 24 23 23 24 24 24 24 24 24 24 25 25 26 27 28 29 30 32 34 34 35 35 35 35 35 34 37 43 48 48 47 46 44 43 43 41 41 42 43 41 43 46 47 45 43 42 41 40 40 40 41 41
26 25 24 24 24 25 24 24 24 25 25 25 26 26 26 25 26 25 25 25 26 26 27 28 29 30 30 32 34 35 35 35 35 34 35 34 35 41 47 49 49 49 47 46 46 44 42 43 43 42 43 46 48 47 47 45 42 41 41 41 42 44
29 28 26 25 26 26 26 25 26 26 26 27 28 28 28 27 27 27 27 27 27 27 28 29 30 30 31 33 34 35 35 35 35 35 35 35 35 38 45 49 50 50 50 50 49 47 45 45 45 44 43 45 46 47 47 47 45 43 42 43 43 45
32 32 30 29 29 29 28 28 29 29 29 29 29 29 29 29 29 29 29 29 28 28 28 29 30 31 32 33 35 35 36 35 35 36 36 36 36 37 41 47 50 51 51 53 53 51 48 46 46 46 45 45 46 46 45 45 45 45 45 45 45 46
36 35 34 32 32 32 32 32 33 33 33 32 32 32 31 31 30 30 30 30 30 30 29 29 30 32 32 33 35 36 36 36 36 36 36 36 37 38 40 44 49 52 53 54 56 56 53 50 49 50 49 47 46 48 47 44 43 44 46 47 48 48
40 39 37 35 35 36 36 35 36 36 36 36 35 35 35 34 33 32 31 31 31 31 31 30 30 32 33 34 35 36 37 37 37 37 37 37 38 38 39 42 46 50 53 55 56 58 58 55 51 51 54 53 50 49 51 49 46 44 45 47 49 50
44 42 41 39 38 38 38 38 39 39 39 39 38 38 38 38 37 36 35 33 32 32 32 32 31 32 33 35 36 37 38 38 38 38 38 38 39 39 40 41 44 47 51 54 56 58 60 60 56 52 52 55 56 54 53 54 52 49 47 47 49 51
46 45 45 44 42 41 41 41 41 41 42 42 41 40 40 40 40 40 39 38 36 35 34 33 33 33 34 35 37 38 39 39 39 39 39 39 39 40 41 42 43 45 48 52 55 58 60 62 61 57 53 53 56 57 56 56 56 55 51 50 51 52
47 47 47 46 45 45 44 44 44 44 44 44 43 43 42 43 43 43 43 42 41 39 38 36 36 35 35 36 37 38 40 40 40 41 41 41 41 41 41 42 43 45 47 49 53 56 59 61 63 63 60 57 55 56 57 57 57 58 57 55 53 54
49 49 48 47 47 47 46 46 47 47 46 46 46 45 45 45 45 45 45 45 44 43 42 41 40 39 39 38 39 40 40 41 41 42 42 43 42 42 42 42 43 44 46 48 51 54 57 60 62 65 66 64 61 58 58 58 59 59 60 59 58 56
53 52 51 50 50 50 49 49 49 49 49 49 48 48 47 47 47 47 47 47 47 46 45 45 44 44 43 42 42 41 42 42 42 42 43 43 44 44 44 44 44 44 45 47 49 52 55 58 60 63 65 67 66 64 61 61 62 61 61 62 63 62
Wind_Direction
281 281 281 281 282 282 282 283 283 283 282 283 283 283 284 285 285 286 286 286 286 285 286 288 285 284 285 285 286 288 290 290 291 292 291 291 290 289 288 286 283 281 280 277 273 270 266 262 262 262 258 255 251 248 246 244 244 239 235 239 238 235
280 280 280 280 280 281 281 281 281 281 281 282 282 283 284 284 285 285 285 285 283 283 284 283 281 280 281 282 285 287 288 289 291 291 290 290 289 288 286 283 281 279 276 272 269 264 259 257 260 260 254 250 246 243 242 240 239 238 235 238 238 236
279 279 279 279 280 280 280 280 280 281 281 282 282 282 282 283 284 284 284 284 283 284 283 278 277 279 281 282 284 286 288 290 290 290 290 289 288 287 285 282 279 277 273 269 265 260 256 256 259 257 249 244 240 238 240 238 236 237 237 239 239 237
278 279 279 279 280 280 281 281 281 281 281 282 282 282 282 283 283 283 284 284 284 284 281 279 280 282 283 284 285 288 290 290 290 290 289 288 287 285 283 280 276 273 269 266 263 257 254 256 256 251 242 236 236 238 240 237 234 236 239 241 239 236
277 278 279 279 280 281 281 282 282 282 282 282 282 282 282 282 282 283 283 283 284 284 283 282 283 284 285 286 288 289 290 291 291 290 288 287 285 282 280 277 272 269 265 262 260 255 254 254 250 244 235 229 231 237 240 237 233 236 241 243 242 238
277 277 278 279 280 281 281 281 281 281 282 282 282 282 282 282 282 282 283 284 284 284 284 284 284 285 287 288 289 289 290 290 289 289 288 284 282 280 276 272 269 266 262 259 257 255 253 249 243 236 228 226 230 236 237 235 234 236 242 246 246 243
277 277 278 279 280 280 280 280 280 281 281 281 282 282 281 281 281 282 283 283 284 285 285 285 286 287 288 289 289 289 289 288 288 288 285 279 277 278 274 268 265 261 258 257 256 254 251 244 238 230 222 223 232 237 237 235 234 237 244 248 248 246
277 277 277 278 278 278 279 279 280 280 280 280 281 281 280 280 281 281 282 283 284 285 286 287 287 288 289 289 289 289 288 287 287 285 280 275 272 271 268 263 261 259 256 254 254 252 247 239 235 228 219 221 230 235 236 234 235 237 244 250 250 247
276 276 276 277 277 277 278 278 278 279 279 279 279 279 279 280 280 281 281 282 284 286 287 286 286 287 288 287 287 287 287 287 285 280 276 273 269 264 259 258 258 258 256 253 252 249 244 236 234 229 220 219 226 232 233 233 235 237 242 250 253 248
275 275 275 276 276 276 277 277 277 278 278 278 278 279 279 280 281 281 282 283 284 284 283 282 283 284 284 285 285 285 285 285 281 277 271 267 264 262 257 254 254 255 254 252 249 246 242 235 231 230 222 218 223 228 231 235 234 236 244 251 254 252
274 274 274 275 275 275 276 276 276 277 277 278 278 279 280 280 281 282 282 282 281 278 276 277 279 279 280 282 283 282 281 280 277 272 265 260 260 262 258 250 250 252 251 250 246 241 241 237 231 229 224 219 222 225 228 234 237 242 249 250 252 253
273 274 274 274 274 274 275 275 276 276 277 277 278 279 280 280 281 281 281 280 279 276 274 275 275 275 275 274 274 274 273 273 272 264 258 257 257 260 260 253 251 250 248 247 241 235 237 238 233 230 226 222 225 227 225 230 238 245 247 248 251 250
272 273 273 274 274 274 275 275 276 277 277 278 278 279 279 279 279 279 279 277 276 274 273 273 272 272 271 268 266 266 264 263 259 253 252 253 251 254 261 260 256 250 247 245 238 231 233 237 234 230 228 226 226 229 229 229 233 239 244 250 254 248
272 272 273 273 274 275 276 276 277 277 277 278 278 278 278 278 277 276 275 274 273 272 271 270 270 269 267 265 262 256 253 251 248 245 243 243 243 248 256 259 258 252 245 243 239 231 230 235 235 230 227 227 226 227 230 232 233 236 245 254 256 248
271 272 273 274 274 275 276 277 277 277 277 277 276 276 275 274 273 273 272 271 270 269 268 268 267 266 263 259 254 246 240 241 240 237 233 234 237 243 249 250 250 248 243 241 239 234 231 232 235 232 227 226 226 226 227 232 237 238 241 249 254 251
272 273 273 274 275 275 275 276 276 275 275 274 274 273 272 271 270 269 268 267 267 266 266 266 265 261 258 252 246 238 232 234 233 230 229 230 231 236 244 246 245 244 243 240 236 235 232 230 233 233 229 227 228 229 227 229 236 240 241 243 248 251
273 273 274 274 274 274 274 273 273 272 271 271 270 269 268 268 267 266 266 265 264 263 262 262 260 256 250 245 238 231 228 228 228 227 227 228 228 232 241 248 249 245 241 237 231 232 231 227 229 229 227 228 229 231 230 228 231 236 240 242 242 243
273 273 273 273 273 272 271 270 269 269 268 267 267 266 266 265 265 264 264 263 262 260 258 256 255 251 244 237 232 227 224 224 227 226 225 225 224 228 238 245 247 244 237 232 225 227 231 228 229 229 226 227 229 232 232 230 230 232 235 238 238 237
272 272 272 271 270 269 268 267 266 265 265 264 264 264 264 264 263 263 261 260 258 256 253 251 249 247 241 234 228 224 219 220 226 227 225 221 218 222 232 237 240 239 234 227 217 221 230 228 227 228 226 227 230 234 236 236 235 233 231 232 235 236
269 268 268 268 267 265 264 262 262 261 262 262 263 263 264 263 262 261 258 255 253 250 248 246 244 242 239 233 228 223 217 215 221 225 225 221 214 216 225 231 234 234 229 220 211 215 225 225 223 224 224 226 229 233 238 240 240 237 233 230 232 234
265 264 263 263 262 261 260 259 258 259 259 260 261 262 262 261 259 257 254 251 248 246 244 243 241 239 237 233 228 224 219 216 219 223 225 221 214 213 221 228 229 229 222 211 206 210 216 218 220 223 225 225 228 230 235 240 241 239 236 232 231 232
262 260 259 258 258 257 257 257 257 258 259 260 260 259 258 257 254 252 249 247 244 242 241 241 240 238 236 233 229 225 222 219 218 221 224 221 214 211 218 224 224 222 214 205 205 208 209 211 214 220 223 225 227 229 233 237 238 237 235 234 232 230
260 258 257 257 256 256 256 256 257 257 257 258 257 256 254 253 250 248 245 243 241 239 238 239 240 239 236 233 229 226 223 221 219 220 222 221 215 211 216 219 216 213 210 207 210 213 212 212 214 217 218 221 226 230 234 237 237 236 233 232 232 230
261 260 258 257 257 257 257 257 257 257 256 255 254 252 251 249 248 246 243 240 237 235 235 238 241 241 238 233 230 227 224 222 219 218 219 220 216 212 213 215 211 209 212 213 216 220 220 219 219 220 218 220 225 229 234 238 238 238 234 231 231 232
265 264 262 261 260 258 256 256 257 257 256 254 251 250 248 247 246 245 242 240 237 235 235 237 241 242 240 235 231 229 226 223 220 218 218 218 217 213 212 214 211 211 214 215 216 221 224 224 224 223 221 222 226 229 233 237 239 240 238 235 232 232
268 267 266 264 263 260 256 255 255 256 255 254 252 250 248 246 245 244 243 242 240 238 237 238 241 243 242 237 232 230 228 226 223 219 218 218 217 213 211 213 213 214 215 214 215 221 226 228 225 224 224 225 226 229 232 235 239 241 242 240 235 233
270 269 267 265 263 261 258 256 255 255 255 254 253 252 250 248 247 246 245 244 243 241 240 241 243 244 242 238 234 232 231 229 227 223 220 220 218 214 213 214 214 216 216 213 214 222 227 229 228 227 228 228 228 229 233 235 238 240 243 243 240 235
272 270 268 266 264 261 259 256 256 256 256 254 253 253 253 251 249 247 246 246 245 243 243 244 244 244 242 237 234 233 233 232 230 227 224 222 221 217 217 218 216 216 217 214 214 220 226 229 230 229 229 231 231 230 233 235 236 238 240 242 243 239
270 270 269 269 267 264 261 258 258 258 258 255 253 252 252 252 251 249 248 247 247 246 245 245 245 244 240 235 233 233 234 234 233 231 228 226 224 221 220 222 221 217 216 216 216 219 225 229 231 229 228 231 232 231 233 235 235 236 237 238 241 241
266 266 268 267 267 267 264 261 260 261 261 259 256 253 251 250 250 250 250 249 249 249 247 246 246 244 241 236 232 232 234 235 235 234 231 228 226 224 222 223 225 222 218 217 218 219 222 227 231 231 229 232 234 234 234 235 236 236 235 236 238 240
264 263 263 263 264 264 264 262 260 261 262 262 260 257 253 251 249 249 249 250 250 250 249 248 247 245 243 239 234 233 235 236 237 237 235 232 229 227 224 223 225 226 223 219 218 219 220 223 229 233 233 233 237 239 238 237 238 238 237 235 236 238
262 262 261 261 260 260 260 261 260 260 260 261 261 259 257 254 252 250 248 249 250 250 250 249 247 246 244 242 238 235 235 238 239 240 238 236 233 230 227 225 225 227 228 225 221 220 220 221 224 231 235 236 237 241 243 243 241 240 239 237 237 238
260 260 260 258 257 256 256 257 258 258 259 259 260 260 258 256 254 253 250 249 248 248 249 249 247 246 244 243 242 239 238 239 241 242 242 241 238 234 231 228 226 226 228 229 227 224 223 222 222 224 230 235 237 238 242 245 245 242 241 240 239 238
258 259 259 257 256 255 254 254 254 255 256 256 257 258 257 257 255 254 253 251 249 248 248 248 248 247 245 243 243 242 242 242 243 243 244 243 242 239 236 232 229 228 228 228 229 229 228 226 225 223 223 228 234 236 238 242 245 245 242 240 241 240
255 256 257 257 255 254 252 252 252 252 253 253 253 254 254 255 255 254 253 252 251 250 249 249 248 247 247 245 243 243 243 244 244 244 244 244 243 242 241 238 233 231 230 229 229 230 231 231 230 229 228 227 228 231 234 236 240 244 244 240 239 240
255 254 255 255 255 254 253 251 251 251 252 252 252 252 252 252 253 253 253 253 252 251 251 250 249 248 247 247 245 244 244 244 245 245 245 245 244 243 243 242 239 235 233 232 231 231 231 232 233 233 234 234 231 229 230 231 233 238 241 241 239 238
257 256 255 254 254 254 253 252 252 252 252 253 252 252 252 252 252 252 252 252 252 251 251 250 250 249 248 247 247 246 245 244 245 245 245 245 244 243 243 243 243 240 237 235 234 234 233 233 234 235 236 237 237 234 231 231 231 232 235 238 239 239
Height
10773 10774 10773 10774 10773 10772 10772 10773 10771 10771 10769 10768 10768 10766 10765 10765 10765 10766 10769 10771 10771 10771 10768 10766 10763 10759 10757 10755 10753 10753 10754 10754 10753 10752 10751 10749 10751 10754 10753 10752 10753 10753 10753 10753 10753 10753 10754 10754 10755 10755 10755 10756 10758 10759 10760 10761 10762 10763 10764 10765 10765 10766
10764 10764 10764 10764 10765 10765 10765 10765 10764 10763 10762 10761 10761 10760 10758 10757 10758 10759 10761 10763 10764 10766 10765 10761 10757 10752 10751 10750 10749 10749 10748 10748 10748 10747 10746 10744 10743 10747 10747 10747 10747 10747 10747 10748 10748 10749 10749 10750 10750 10750 10750 10752 10754 10755 10756 10758 10759 10760 10761 10762 10762 10763
10754 10754 10754 10755 10757 10757 10757 10757 10757 10757 10756 10755 10755 10754 10752 10750 10751 10752 10753 10753 10754 10757 10758 10755 10752 10748 10747 10746 10746 10745 10743 10743 10742 10741 10741 10740 10738 10738 10740 10741 10741 10741 10742 10742 10743 10744 10744 10745 10745 10746 10746 10748 10749 10751 10752 10754 10756 10757 10758 10759 10759 10760
10746 10745 10744 10745 10747 10748 10748 10748 10748 10748 10748 10747 10747 10746 10745 10744 10743 10744 10746 10746 10746 10749 10749 10747 10744 10743 10741 10740 10740 10740 10738 10737 10736 10735 10734 10734 10733 10732 10733 10735 10735 10735 10737 10737 10739 10739 10740 10740 10741 10741 10742 10744 10746 10747 10749 10751 10753 10754 10755 10756 10756 10757
10738 10737 10737 10737 10738 10739 10739 10738 10738 10738 10738 10737 10737 10737 10737 10736 10736 10736 10738 10739 10739 10739 10739 10737 10735 10734 10734 10733 10734 10734 10732 10730 10729 10728 10728 10727 10727 10726 10727 10729 10729 10730 10731 10732 10734 10735 10735 10736 10736 10737 10738 10740 10742 10744 10745 10747 10749 10750 10751 10752 10753 10754
10732 10731 10730 10730 10731 10731 10730 10729 10728 10729 10729 10729 10729 10729 10729 10728 10729 10729 10730 10732 10732 10731 10729 10727 10725 10726 10727 10726 10727 10728 10726 10724 10723 10722 10721 10720 10720 10721 10721 10723 10724 10725 10726 10727 10729 10730 10731 10732 10732 10733 10735 10737 10739 10740 10742 10744 10746 10747 10748 10749 10750 10751
10725 10724 10724 10724 10724 10723 10722 10721 10720 10720 10721 10721 10721 10720 10720 10721 10722 10722 10723 10724 10724 10723 10721 10718 10717 10718 10720 10720 10720 10721 10720 10718 10717 10716 10715 10714 10714 10715 10715 10717 10718 10720 10721 10722 10723 10725 10726 10727 10728 10729 10731 10734 10736 10737 10739 10741 10742 10744 10745 10745 10746 10748
10717 10717 10717 10717 10717 10715 10714 10713 10713 10712 10712 10713 10713 10712 10712 10713 10714 10715 10716 10717 10717 10716 10714 10711 10710 10711 10712 10713 10713 10713 10713 10711 10711 10710 10709 10708 10709 10709 10710 10712 10713 10714 10716 10717 10718 10720 10722 10723 10724 10725 10727 10730 10732 10734 10736 10738 10739 10740 10741 10742 10743 10745
10710 10709 10709 10709 10708 10708 10706 10706 10705 10705 10705 10705 10705 10705 10705 10705 10706 10708 10709 10710 10711 10708 10706 10705 10705 10705 10706 10706 10706 10706 10705 10705 10705 10705 10704 10703 10703 10704 10705 10707 10708 10709 10711 10712 10714 10716 10717 10719 10720 10721 10723 10726 10729 10731 10732 10734 10736 10737 10739 10740 10740 10741
10701 10701 10701 10701 10700 10699 10698 10698 10698 10698 10697 10697 10697 10698 10698 10698 10698 10699 10701 10704 10706 10704 10700 10699 10700 10700 10700 10700 10699 10700 10700 10700 10700 10700 10700 10699 10699 10699 10700 10702 10703 10704 10707 10709 10710 10712 10714 10715 10717 10718 10720 10722 10725 10727 10730 10732 10733 10735 10736 10738 10738 10739
10692 10692 10692 10692 10692 10691 10690 10690 10690 10690 10689 10689 10690 10691 10691 10691 10690 10691 10693 10695 10698 10698 10695 10694 10695 10694 10696 10698 10696 10695 10697 10697 10696 10695 10695 10695 10695 10696 10696 10697 10699 10700 10702 10705 10707 10709 10710 10712 10714 10715 10717 10718 10721 10724 10727 10729 10731 10732 10734 10735 10736 10736
10683 10683 10683 10684 10684 10684 10683 10682 10682 10682 10682 10682 10683 10683 10684 10684 10683 10683 10684 10685 10686 10686 10685 10686 10688 10689 10690 10693 10692 10690 10691 10693 10693 10691 10691 10692 10693 10692 10692 10694 10695 10696 10698 10701 10704 10706 10707 10709 10711 10712 10714 10716 10718 10721 10723 10725 10728 10730 10731 10732 10733 10733
10675 10675 10675 10676 10676 10675 10675 10674 10674 10674 10674 10674 10675 10676 10676 10676 10676 10676 10676 10676 10676 10675 10676 10678 10680 10682 10683 10685 10686 10685 10685 10688 10689 10687 10688 10690 10691 10690 10690 10691 10692 10693 10695 10697 10701 10703 10704 10705 10707 10710 10711 10713 10715 10718 10720 10722 10724 10726 10728 10729 10729 10730
10668 10668 10668 10668 10668 10667 10666 10666 10666 10667 10666 10666 10668 10669 10669 10669 10668 10668 10668 10667 10667 10667 10668 10670 10673 10675 10676 10677 10679 10680 10680 10682 10683 10684 10686 10687 10688 10688 10689 10690 10690 10690 10692 10694 10697 10700 10701 10703 10705 10707 10709 10710 10712 10715 10717 10718 10721 10723 10725 10726 10726 10727
10660 10660 10660 10660 10660 10659 10659 10658 10658 10659 10659 10659 10660 10662 10662 10661 10661 10661 10661 10660 10660 10661 10661 10664 10667 10669 10670 10671 10674 10675 10675 10676 10679 10681 10683 10684 10686 10687 10688 10689 10688 10687 10689 10691 10694 10696 10699 10700 10702 10704 10706 10707 10709 10712 10714 10716 10718 10720 10722 10723 10724 10725
10651 10652 10652 10652 10652 10652 10651 10651 10651 10651 10651 10652 10652 10654 10654 10654 10654 10654 10654 10654 10655 10655 10656 10658 10661 10663 10664 10666 10668 10670 10671 10672 10675 10677 10679 10682 10684 10685 10685 10686 10685 10684 10686 10688 10690 10693 10696 10697 10698 10701 10703 10704 10707 10709 10712 10713 10715 10717 10719 10720 10722 10723
10642 10643 10643 10644 10645 10645 10645 10644 10644 10644 10645 10645 10646 10647 10647 10648 10648 10649 10649 10649 10650 10651 10651 10653 10655 10657 10659 10661 10663 10665 10667 10669 10671 10672 10675 10679 10681 10681 10681 10682 10682 10682 10684 10685 10687 10690 10692 10694 10695 10697 10699 10702 10704 10706 10708 10711 10712 10714 10715 10716 10718 10720
10634 10634 10635 10636 10637 10638 10638 10638 10638 10638 10638 10639 10640 10640 10641 10642 10643 10643 10644 10645 10645 10646 10647 10648 10650 10652 10654 10657 10659 10661 10663 10667 10668 10669 10672 10675 10676 10677 10678 10678 10678 10680 10681 10683 10685 10686 10688 10690 10692 10694 10696 10699 10701 10703 10705 10706 10708 10710 10711 10712 10714 10716
10628 10628 10628 10629 10630 10631 10632 10632 10632 10632 10633 10634 10634 10635 10636 10637 10638 10639 10640 10640 10641 10641 10642 10644 10645 10647 10649 10652 10654 10656 10660 10664 10665 10665 10667 10670 10672 10673 10674 10674 10675 10677 10679 10680 10682 10683 10685 10687 10689 10691 10693 10696 10698 10699 10700 10702 10704 10706 10707 10709 10711 10713
10623 10623 10623 10623 10624 10625 10626 10627 10627 10627 10628 10629 10630 10631 10631 10632 10633 10634 10636 10636 10637 10638 10639 10640 10641 10643 10645 10647 10649 10652 10655 10658 10659 10660 10662 10664 10666 10668 10669 10670 10672 10675 10676 10677 10679 10680 10682 10684 10686 10687 10690 10692 10693 10695 10696 10698 10700 10701 10703 10706 10707 10709
10617 10617 10618 10618 10619 10620 10621 10622 10623 10623 10624 10625 10626 10627 10627 10628 10629 10630 10632 10633 10634 10634 10635 10637 10638 10639 10641 10643 10645 10647 10650 10652 10654 10655 10656 10658 10661 10663 10664 10665 10668 10670 10672 10673 10675 10677 10679 10680 10682 10684 10686 10687 10688 10690 10693 10694 10696 10697 10699 10702 10703 10705
10612 10613 10613 10614 10615 10616 10617 10618 10618 10619 10620 10621 10623 10624 10624 10625 10626 10627 10628 10629 10630 10631 10632 10633 10635 10636 10637 10639 10641 10642 10645 10647 10649 10650 10651 10653 10656 10658 10659 10661 10664 10665 10667 10669 10671 10673 10675 10676 10678 10680 10682 10683 10684 10686 10688 10690 10691 10693 10695 10697 10699 10702
10608 10608 10609 10610 10611 10612 10613 10614 10615 10616 10617 10618 10619 10620 10621 10622 10622 10624 10625 10626 10627 10628 10629 10630 10631 10632 10634 10635 10636 10638 10640 10642 10644 10645 10646 10648 10650 10652 10654 10656 10659 10660 10662 10663 10666 10668 10670 10672 10674 10675 10677 10679 10680 10682 10683 10684 10687 10689 10691 10693 10695 10699
10603 10604 10606 10607 10608 10609 10610 10610 10611 10613 10614 10615 10616 10617 10618 10618 10619 10620 10622 10623 10624 10625 10626 10627 10628 10629 10630 10631 10632 10633 10635 10637 10639 10640 10642 10643 10645 10647 10650 10652 10654 10656 10657 10659 10661 10663 10665 10667 10668 10670 10673 10675 10676 10678 10679 10680 10682 10684 10687 10689 10692 10694
10600 10601 10602 10603 10605 10606 10606 10607 10608 10609 10610 10611 10612 10613 10614 10615 10616 10617 10618 10620 10621 10622 10623 10624 10625 10625 10626 10627 10628 10629 10631 10632 10634 10636 10637 10639 10640 10643 10645 10647 10650 10652 10654 10655 10657 10658 10660 10661 10663 10666 10668 10670 10672 10674 10675 10676 10678 10680 10682 10685 10688 10691
10596 10598 10598 10600 10601 10602 10602 10603 10604 10605 10606 10607 10608 10610 10611 10612 10613 10614 10615 10616 10618 10619 10620 10621 10621 10622 10622 10623 10624 10625 10626 10628 10630 10631 10633 10634 10636 10638 10640 10642 10645 10647 10649 10651 10653 10654 10655 10656 10658 10661 10663 10665 10667 10669 10671 10673 10675 10676 10678 10680 10684 10687
10593 10594 10595 10596 10597 10598 10599 10600 10601 10602 10603 10604 10605 10606 10607 10609 10610 10611 10612 10613 10614 10615 10616 10617 10618 10618 10619 10619 10620 10621 10622 10623 10625 10627 10629 10630 10631 10633 10635 10637 10639 10642 10644 10647 10648 10649 10650 10651 10654 10657 10658 10660 10662 10665 10668 10670 10671 10673 10675 10676 10679 10681
10589 10590 10592 10593 10593 10594 10595 10596 10597 10598 10599 10600 10601 10602 10604 10605 10606 10607 10608 10609 10610 10611 10613 10614 10614 10615 10615 10615 10616 10617 10618 10619 10621 10622 10624 10626 10627 10628 10630 10631 10634 10636 10639 10642 10644 10645 10646 10647 10650 10652 10654 10655 10658 10661 10664 10666 10668 10669 10671 10672 10674 10677
10586 10587 10588 10589 10590 10590 10591 10593 10594 10594 10595 10596 10597 10599 10600 10601 10603 10604 10605 10606 10606 10607 10609 10609 10610 10611 10611 10611 10612 10613 10614 10615 10616 10618 10619 10621 10623 10624 10625 10626 10628 10631 10634 10637 10639 10641 10642 10643 10645 10647 10649 10651 10653 10657 10659 10661 10664 10666 10667 10668 10670 10671
10582 10583 10585 10586 10586 10587 10588 10589 10590 10590 10591 10592 10593 10594 10596 10597 10598 10599 10601 10602 10603 10603 10604 10605 10606 10607 10607 10607 10608 10609 10610 10610 10612 10613 10614 10616 10618 10619 10620 10621 10623 10625 10628 10632 10635 10637 10639 10640 10641 10643 10645 10647 10649 10652 10655 10657 10659 10661 10663 10664 10665 10667
10577 10579 10581 10582 10583 10583 10584 10585 10586 10586 10587 10588 10589 10590 10591 10593 10594 10595 10596 10597 10598 10599 10600 10601 10602 10602 10603 10604 10604 10605 10606 10606 10607 10608 10609 10611 10613 10614 10616 10617 10618 10620 10623 10626 10629 10632 10635 10636 10637 10638 10641 10643 10644 10647 10649 10652 10654 10656 10658 10660 10661 10662
10572 10574 10576 10578 10579 10579 10580 10580 10581 10582 10583 10584 10585 10586 10587 10588 10590 10591 10592 10593 10594 10595 10596 10596 10597 10598 10599 10600 10600 10601 10602 10603 10603 10604 10605 10606 10608 10609 10611 10613 10614 10616 10618 10621 10623 10626 10629 10632 10633 10634 10636 10639 10641 10642 10644 10646 10649 10651 10653 10655 10657 10658
10567 10569 10570 10572 10574 10574 10575 10576 10576 10577 10578 10579 10580 10581 10582 10583 10585 10586 10587 10589 10590 10590 10591 10592 10593 10594 10595 10595 10596 10597 10598 10599 10600 10601 10601 10602 10604 10605 10607 10608 10610 10612 10613 10616 10618 10620 10623 10626 10628 10630 10631 10634 10636 10639 10639 10640 10643 10646 10648 10650 10652 10654
10561 10563 10564 10566 10568 10569 10570 10570 10571 10572 10573 10574 10575 10576 10577 10578 10579 10581 10582 10584 10585 10586 10586 10587 10588 10589 10590 10591 10591 10592 10593 10595 10596 10597 10598 10599 10600 10601 10603 10604 10606 10608 10609 10611 10613 10615 10617 10619 10622 10624 10626 10628 10630 10633 10635 10636 10637 10640 10643 10645 10646 10648
10555 10556 10557 10559 10560 10562 10563 10564 10565 10566 10567 10568 10570 10571 10572 10573 10574 10575 10577 10578 10579 10581 10581 10582 10583 10584 10585 10586 10586 10587 10588 10590 10591 10592 10593 10594 10596 10597 10599 10601 10602 10604 10605 10607 10608 10609 10611 10613 10615 10617 10619 10622 10625 10627 10630 10632 10633 10634 10637 10640 10641 10642
10548 10549 10550 10552 10553 10554 10556 10558 10559 10560 10561 10563 10564 10565 10566 10567 10568 10569 10570 10572 10573 10574 10576 10577 10577 10579 10580 10580 10581 10582 10583 10585 10586 10587 10588 10589 10591 10593 10594 10596 10598 10600 10601 10603 10604 10605 10606 10608 10609 10611 10613 10615 10618 10621 10623 10626 10628 10629 10630 10633 10635 10636
10540 10542 10544 10545 10546 10547 10549 10551 10553 10554 10556 10557 10559 10560 10561 10561 10562 10563 10564 10565 10566 10567 10569 10570 10571 10572 10574 10575 10576 10577 10578 10579 10581 10582 10583 10584 10586 10587 10589 10591 10593 10595 10597 10598 10599 10600 10602 10603 10604 10606 10607 10608 10610 10613 10616 10619 10621 10622 10624 10625 10627 10629